パンスターズ彗星

C/2017 K2 ( PanSTARRS )

English version
Home page
Updated on July 24, 2022

---------------------------------------------------------------------

・ プロフィール

発見日 2017年5月21日
発見光度 20.8等
発見者 Pan-STARRS 1 telescope (Haleakala)

・ 写真集

・ 軌道要素

Epoch 2022 Jan. 21.0 TT = JDT 2459600.5
T 2022 Dec. 19.69235 TT                                 Rudenko
q   1.7971152            (2000.0)            P               Q
z  -0.0003891      Peri.  236.19334     +0.01825449     +0.04925457
 +/-0.0000008      Node    88.23673     -0.18101636     +0.98244326
e   1.0006993      Incl.   87.55886     -0.98331066     -0.17994230
From 7153 observations 2013 May 12-2022 Jan. 29, mean residual 0".4.

・ 星図

・ 光度変化

        m1 = 4.0 + 5 logΔ + 7.5 log r

---------------------------------------------------------------------

軌道要素はM.P.E.C. 2022-C56に掲載されたものです。
星図はステラナビゲータ Ver.10 (アストロアーツ) で作成したものです。
光度グラフはComet for Windowsで作成したものです。

---------------------------------------------------------------------

Copyright(C) Seiichi Yoshida (comet@aerith.net). All rights reserved.